Other Public Products
Issued by NWS Grand Forks, ND

Home | Current Version | Previous Version | Text Only | Print | Product List | Glossary Off
Versions: 1 2 3 4 5 6 7 8 9 10 11 12 13 14 15 16 17 18 19 20 21 22 23 24 25 26 27 28 29 30 31 32 33 34 35 36 37 38 39 40 41 42 43 44 45 46 47 48 49 50

000
FPUS83 KFGF 161331
OPUFGF
PRAIRIE TO PINES WEATHER ROUNDUP
NATIONAL WEATHER SERVICE EASTERN NORTH DAKOTA/GRAND FORKS ND
700 AM CST MON JAN 16 2017

 **SATELLITE DATA USED TO AUGMENT SKY COVER AT AUTOMATED STATIONS**
 *****  WEATHER ACROSS EASTERN NORTH DAKOTA  *****

CITY           SKY/WX    TMP DP  RH WIND       PRES   REMARKS
GRAND FORKS    FAIR       4  -2  76 S6        30.04R WCI  -7
GRAND FORKS AF FAIR      10   2  70 W10       30.04R WCI  -4
GRAND CITY NWS NOT AVBL
BUXTON           N/A      7   4  89 S8          N/A  WCI  -6
DEVILS LAKE    FAIR       7   3  84 W7        30.02R WCI  -5
FARGO          FAIR       8   5  87 S8        30.08R WCI  -4
WAHPETON ARPT  FAIR       5   1  85 CALM      30.10F
$$

 *****  WEATHER ACROSS CENTRAL AND WESTERN NORTH DAKOTA  *****

CITY           SKY/WX    TMP DP  RH WIND       PRES   REMARKS
JAMESTOWN      FAIR      11   4  73 W7        30.03R WCI   0
BISMARCK       FAIR      -8 -14  74 CALM      30.07S
MINOT          FAIR      13   7  77 SW10      30.02R WCI   0
MINOT AFB      FAIR      10   5  82 W12       30.00F WCI  -5
GARRISON         N/A     11   4  73 W7        30.04R WCI   0
WILLISTON      FAIR       5   2  87 CALM      30.08R
DICKINSON      FAIR      13   6  74 W17       30.02R WCI  -4
HETTINGER      FAIR      10   3  73 W15       30.07R WCI  -7
$$

 *****  OTHER OBSERVATIONS NORTHEAST NORTH DAKOTA  *****

CITY           SKY/WX    TMP DP  RH WIND       PRES   REMARKS
WALHALLA       NOT AVBL
LANGDON        NOT AVBL
CAVALIER         N/A      5   0  78 W3        30.02S
GRAFTON        FAIR       7   1  78 S13       30.06R WCI  -9
CANDO          NOT AVBL
FORT TOTTEN      N/A     14   5  68 W5        29.95S WCI   6
ROLLA            N/A    N/A N/A N/A MISG        N/A
RUGBY            N/A      3   0  85 SW8       30.01S WCI -10
 ***** THE ABOVE OBSERVATIONS ARE NON NWS ARE NOT QUALITY
        CONTROLLED AND MAY MIS-REPORT RAIN FOR SNOW...
$$

 *****  OTHER OBSERVATIONS SOUTHEAST NORTH DAKOTA *****

CITY           SKY/WX    TMP DP  RH WIND       PRES   REMARKS
COOPERSTOWN    FAIR       3   0  85 NW5       30.03R WCI  -6
VALLEY CITY    FAIR      12   7  79 SW3       30.05S
OAKES          NOT AVBL
GWINNER        FAIR      12  10  92 SW13      30.07F WCI  -3
SHEYENNE NWR     N/A      9   4  81 SW7       29.95S WCI  -2
BUFFALO          N/A      7   0  75 S6          N/A  WCI  -4
WYNDMERE         N/A     -2  -6  84 S2          N/A
 ***** THE ABOVE OBSERVATIONS ARE NON NWS ARE NOT QUALITY
       CONTROLLED AND MAY MIS-REPORT RAIN FOR SNOW...
$$

  *****  WEATHER ACROSS NORTHERN MINNESOTA  *****

CITY           SKY/WX    TMP DP  RH WIND       PRES   REMARKS
FLAG ISLAND    FAIR       3   1  92 S6        30.02R WCI  -8
WARROAD        FAIR       9   5  85 SW3       30.03R
ROSEAU         FAIR       9   3  78 S8        30.02S WCI  -4
HALLOCK        FAIR       1  -2  85 S9        30.02S WCI -14
THF RVR FALLS  FAIR       9   6  88 S8        30.05R WCI  -3
HALSTAD          N/A      5   1  84 S9          N/A  WCI  -9
FOSSTON        FAIR      10   9  92 S10       30.05S WCI  -3
BAUDETTE       FAIR       6   2  83 SE3       30.01S
WASKISH        FAIR       1   0  92 CALM      30.04R
CROOKSTON      FAIR       7   3  85 S9        30.08R WCI  -7
$$
  *****  WEATHER ACROSS CENTRAL AND WEST MINNESOTA  *****

CITY           SKY/WX    TMP DP  RH WIND       PRES   REMARKS
BEMIDJI        FAIR       1  -2  86 CALM      30.05R FOG
PARK RAPIDS    FAIR       5  -1  76 SE9       30.06S HAZE    WCI  -9
WADENA         FAIR       3   0  85 S5        30.08S FOG     WCI  -6
DETROIT LAKES  FAIR      14  12  92 CALM      30.07S FOG
MOORHEAD       FAIR      12  10  92 S9        30.10R WCI   0
FERGUS FALLS   FAIR      10   9  92 S9        30.14F WCI  -2
ELBOW LAKE     FAIR      13  11  91 E7        30.11S FOG     WCI   3
MORRIS MN      FAIR       9   7  92 SE6       30.10F WCI  -1
STAPLES        FAIR       5   3  92 CALM      30.10S FOG
WHEATON        FAIR       9   7  92 S3        30.12F
$$
  *****  WEATHER ELSEWHERE ACROSS MINNESOTA  *****

CITY           SKY/WX    TMP DP  RH WIND       PRES   REMARKS
DULUTH         FAIR      16  13  88 W13       30.08F FOG     WCI   2
INTRNTL FALLS  FAIR       1  -4  79 CALM      30.04R HAZE
ELY            FAIR       5   1  85 CALM      30.07R
CLOQUET        FAIR      16  12  86 S6        30.11R FOG     WCI   7
BRAINERD       FAIR       6   3  87 SW5       30.11S FOG     WCI  -3
HIBBING        MOCLDY    -7 -10  87 NW5       30.08S WCI -18
ALEXANDRIA     FAIR      13  10  88 S6        30.10S WCI   4
SAINT CLOUD    FAIR       4   2  91 CALM      30.15S
MINNEAPOLIS    MOCLDY    18  13  80 E6        30.18R WCI  10
$$

  *****  WEATHER ACROSS SOUTH DAKOTA  *****

CITY           SKY/WX    TMP DP  RH WIND       PRES   REMARKS
SIOUX FALLS    CLOUDY    25  21  85 N5        30.08F WCI  19
BROOKINGS      FAIR      10   7  87 CALM      30.08R
WATERTOWN      FAIR       9   5  84 CALM      30.08S FOG
HURON          FAIR      11   7  84 N6        30.10S WCI   1
SISSETON         N/A     14  12  92 S5        30.09R WCI   6
ABERDEEN       FAIR       0  -6  76 S7        30.10S WCI -13
MITCHELL       FAIR      16  14  92 NW6       30.11R WCI   7
PIERRE         FAIR       7   5  91 CALM      30.08R
MOBRIDGE       FAIR      -3  -9  75 CALM      30.05S
RAPID CITY     FAIR      25  10  53 N16       30.06R WCI  12
$$

  *****  SOME WEATHER IN NEARBY STATES *****

CITY           SKY/WX    TMP DP  RH WIND       PRES   REMARKS
GLASGOW MT     FAIR       3   0  87 NW9       30.11R WCI -12
GREAT FALLS MT FAIR      22  10  60 S18       30.09F WCI   7
CHEYENNE WY    CLOUDY    30  15  53 N18G26    29.99R WCI  18
SCOTTSBLUFF NE CLOUDY    34  24  67 NW9       30.03R
OMAHA NE       CLOUDY    33  29  85 NE14      30.01F FOG     WCI  23
DES MOINES IA  FRZ RAIN  32  31  96 E9        30.08F FOG     WCI  24
DAVENPORT IA   CLOUDY    32  30  92 E14       30.18F FOG     WCI  22
CHICAGO IL     FRZ RAIN  32  29  88 NE6       30.26R
EAU CLAIRE WI  FAIR       4   2  91 CALM      30.20S FOG
LA CROSSE WI   CLOUDY   N/A N/A N/A SE5       30.21F
$$

  *****  SOME NATIONAL WEATHER *****

CITY           SKY/WX    TMP DP  RH WIND       PRES   REMARKS
LA GUARDIA NY  FAIR      32  18  56 CALM      30.46S
RALEIGH NC     CLOUDY    44  30  57 E6        30.42R
ATLANTA GA     MOCLDY    53  50  89 E7        30.28R
NEW ORLEANS LA FAIR      63  63 100 SE9       30.10R
OKLAHOMA CITY  CLOUDY    41  39  93 SW14      29.87R
ALBUQUERQUE NM DRIZZLE   36  35  96 E5        29.92S
SALT LAKE CITY CLOUDY    25  22  88 N8        30.23S WCI  16
LOS ANGELES CA MOCLDY    54  50  86 NE3       30.05R
BOISE ID       FAIR       2  -1  88 SE5       30.43F FOG     WCI  -8
SEATTLE WA     FAIR      31  26  82 SE3       30.22F
$$

*** WEATHER ACROSS MANITOBA...SASKATCHEWAN AND ONTARIO ***
                ***ONTARIO***

CITY           SKY/WX    TMP DP  RH WIND       PRES   REMARKS
GERALDTON      PTCLDY    21  16  79 W3        30.01R
THUNDER BAY    PTCLDY     3   1  92 VRB2      30.09R
SIOUX LOOKOUT  MOCLDY     9   7  92 SE2       30.00F
TORONTO        PTCLDY    23  18  80 SW9       30.32F WCI  13
BIG TROUT LK   LGT SNOW  14  12  92 N5        30.02  WCI   6
PICKLE LAKE    MOCLDY    14  12  92 W8        29.98R WCI   3
DRYDEN         CLEAR     12   9  85 S7        29.99S WCI   2
KENORA         MOCLDY    10   7  85 S7        29.99R WCI   0
$$
                *** MANITOBA***

CITY           SKY/WX    TMP DP  RH WIND       PRES   REMARKS
BRANDON        PTCLDY     9   3  78 NW13      29.99R WCI  -7
DAUPHIN        MOCLDY    23  18  80 W12       29.98S WCI  12
ISLAND LAKE    FRZ DRZL  19  18  93 S3        29.96R FOG
PILOT MOUND      N/A      7   3  85 NW9         N/A  WCI  -7
THE PAS        CLEAR     14  10  85 SE5       29.91R WCI   6
THOMPSON       LGT SNOW  16  14  93 VRB5      29.91F WCI   9
WINNIPEG       PTCLDY     5   1  85 S5        29.99S WCI  -4
LYNN LAKE      CLOUDY    21  21 100 S6        29.79S WCI  14
CHURCHILL      FLURRIES -13 -18  77 W5        30.08S WCI -25
GILLAM         PTCLDY    -8 -11  84 SE5       30.01F WCI -19
$$
                ***SASKATCHEWAN***

CITY           SKY/WX    TMP DP  RH WIND       PRES   REMARKS
ESTEVAN        PTCLDY     7   5  92 W8        30.04R WCI  -6
KINDERSLEY     PTCLDY    10   7  85 S10       30.00F WCI  -3
LLOYDMINSTER   CLEAR     21  16  79 SW13      29.87F WCI   9
PRINCE ALBERT  CLEAR      1  -2  85 CALM      29.95R
REGINA         CLEAR      9   7  92 W3        30.04R
YORKTON        CLEAR     10   7  85 S5        29.99R WCC1F1C2F2C3F3C4F4C5F5C6F6C7F7C8F8C9F9CaFaCbFbCcFcCdFdCe!



USA.gov is the U.S. government's official web portal to all federal, state and local government web resources and services.